Grand Junction, CO

6:25 AM MST on February 24, 2017 (GMT -0700)
Walker

Weather History for KGJT - November, 2014

Change the Weather History Date:

Sunday, November 2, 2014

  Actual Average Record
Temperature  
Mean Temperature 51 °F 46 °F  
Max Temperature 61 °F 58 °F 76 °F (2008)
Min Temperature 40 °F 33 °F 14 °F (1951)
Degree Days  
Heating Degree Days 14 19  
Month to date heating degree days 15 38  
Since 1 July heating degree days 381 486  
Cooling Degree Days 0 0  
Month to date cooling degree days 0 0  
Year to date cooling degree days 1046 1125  
Moisture  
Dew Point 39 °F    
Average Humidity 66    
Maximum Humidity 100    
Minimum Humidity 32    
Precipitation  
Precipitation 0.23 in 0.03 in 0.34 in (1959)
Month to date precipitation 0.23 0.06  
Year to date precipitation 10.74 8.16  
Snow  
Snow 0.00 in 0.10 in 1.00 in (1946)
Month to date snowfall 0.0 0.1  
Since 1 July snowfall 0.0 0.5  
Since 1 September snowfall 0.0 0.5  
Snow Depth 0.00 in    
Sea Level Pressure  
Sea Level Pressure 29.78 in    
Wind  
Wind Speed 8 mph (NW)    
Max Wind Speed 29 mph    
Max Gust Speed 37 mph    
Visibility 9 miles    
Events Rain , Thunderstorm    
T = Trace of Precipitation, MM = Missing Value Source: NWS Daily Summary

Daily Weather History Graph

Daily Weather History Graph

Search for Another Location

Airport or City:

Trip Planner

Search our weather history database for the weather conditions in past years. The results will help you decide how hot, cold, wet, or windy it might be!

Date:

Astronomy

Nov. 02, 2014 Rise Set
Actual Time 6:42 AM MST 5:11 PM MST
Civil Twilight 6:15 AM MST 5:39 PM MST
Nautical Twilight 5:43 AM MST 6:11 PM MST
Astronomical Twilight 5:12 AM MST 6:42 PM MST
Moon 2:44 PM MST (11/2) 1:51 AM MST (11/2)
Length of Visible Light 11h 24m
Length of Day
10h 29m
Waxing Gibbous, 79% of the Moon is Illuminated
Nov 2
Waxing Gibbous
Nov 6
Full
Nov 14
Last Quarter
Nov 22
New
Nov 29
First Quarter

Hourly Weather History & Observations

Time (MST) Temp. Windchill Dew Point Humidity Pressure Visibility Wind Dir Wind Speed Gust Speed Precip Events Conditions
12:53 AM 60.1 °F - 30.0 °F 32% 29.68 in 10.0 mi South 8.1 mph - N/A   Clear
1:53 AM 60.1 °F - 30.0 °F 32% 29.67 in 10.0 mi South 9.2 mph 19.6 mph N/A   Clear
1:53 AM 57.9 °F - 30.0 °F 35% 29.68 in 10.0 mi SE 10.4 mph - N/A   Clear
2:53 AM 57.0 °F - 30.0 °F 36% 29.68 in 10.0 mi SSE 9.2 mph - N/A   Clear
3:53 AM 55.9 °F - 30.0 °F 37% 29.69 in 10.0 mi South 11.5 mph - N/A   Partly Cloudy
4:53 AM 53.1 °F - 30.9 °F 43% 29.70 in 10.0 mi SE 5.8 mph - N/A   Scattered Clouds
5:46 AM 48.9 °F - 41.0 °F 74% 29.88 in 10.0 mi WNW 19.6 mph 31.1 mph 0.00 in Rain , Thunderstorm Light Thunderstorms and Rain
5:53 AM 48.9 °F - 39.9 °F 71% 29.76 in 10.0 mi WNW 13.8 mph 31.1 mph 0.00 in Rain , Thunderstorm Light Thunderstorms and Rain
6:12 AM 46.0 °F 43.9 °F 39.0 °F 76% 29.87 in 10.0 mi NW 4.6 mph - 0.00 in   Mostly Cloudy
6:53 AM 48.0 °F - 39.9 °F 74% 29.78 in 10.0 mi West 28.8 mph 38.0 mph 0.00 in Rain Light Rain
7:13 AM 44.1 °F 36.2 °F 43.0 °F 96% 29.90 in 2.5 mi WSW 18.4 mph 28.8 mph 0.07 in Rain Heavy Rain
7:20 AM 45.0 °F 37.6 °F 42.1 °F 90% 29.91 in 4.0 mi SW 17.3 mph 23.0 mph 0.09 in Rain Rain
7:53 AM 45.0 °F 41.2 °F 42.1 °F 90% 29.83 in 6.0 mi NNW 6.9 mph - 0.14 in Rain Light Rain
8:53 AM 46.9 °F - 43.0 °F 86% 29.83 in 10.0 mi NE 8.1 mph - 0.00 in   Mostly Cloudy
9:53 AM 53.1 °F - 41.0 °F 64% 29.79 in 10.0 mi NE 4.6 mph - N/A   Mostly Cloudy
10:53 AM 55.0 °F - 39.0 °F 55% 29.76 in 10.0 mi Calm Calm - N/A   Mostly Cloudy
11:53 AM 52.0 °F - 41.0 °F 66% 29.75 in 10.0 mi South 6.9 mph - 0.01 in Rain Light Rain
12:40 PM 51.1 °F - 43.0 °F 74% 29.87 in 10.0 mi NW 21.9 mph 27.6 mph 0.00 in   Overcast
12:53 PM 50.0 °F - 43.0 °F 77% 29.76 in 10.0 mi NW 15.0 mph 27.6 mph 0.00 in   Overcast
1:53 PM 48.2 °F - 42.8 °F 82% 29.76 in 10.0 mi NW 16.1 mph - N/A   Overcast
2:53 PM 50.0 °F - 41.0 °F 71% 29.75 in 10.0 mi NNW 12.7 mph - 0.00 in   Mostly Cloudy
3:53 PM 50.0 °F - 39.2 °F 66% 29.85 in 10.0 mi NNW 3.5 mph - N/A Rain Light Rain
4:53 PM 46.0 °F 42.5 °F 43.0 °F 89% 29.77 in 8.0 mi ENE 6.9 mph - 0.06 in Rain Light Rain
5:53 PM 45.0 °F 41.8 °F 42.1 °F 90% 29.80 in 10.0 mi North 5.8 mph - 0.02 in   Overcast
6:53 PM 43.0 °F - 41.0 °F 93% 29.81 in 10.0 mi Calm Calm - N/A   Clear
7:53 PM 39.9 °F 37.8 °F 39.0 °F 97% 29.83 in 10.0 mi North 3.5 mph - N/A   Partly Cloudy
8:53 PM 43.0 °F 39.5 °F 39.9 °F 89% 29.83 in 10.0 mi West 5.8 mph - N/A   Mostly Cloudy
9:53 PM 42.1 °F 37.7 °F 39.0 °F 89% 29.82 in 10.0 mi NNE 6.9 mph - 0.00 in Rain Light Rain
10:53 PM 41.0 °F 38.0 °F 39.0 °F 93% 29.81 in 10.0 mi ENE 4.6 mph - 0.00 in   Mostly Cloudy